Flag for U.S.A. Weather past 2 weeks in Dover, Delaware, U.S.A.

Now
71 °F

Clear.


Feels Like: 63 °F
Forecast: 72 / 87 °F
Wind: 2 mph from Northwest

Location: Dover Air Force Base

Current Time: Sep 2, 2015 at 3:30:55 AM

Latest Report: Sep 2, 2015 at 2:58 AM


Visibility: 10 mi

Pressure: 30.02 "Hg

Humidity: 100%

Dew point: 71 °F

Location of DoverLocation

Historic Weather in Dover — Graph

°F

Dover temperature yesterday

Maximum temperature yesterday: 90 °F (at 2:58 PM)
Minimum temperature yesterday: 71 °F (at 6:58 AM)
Average temperature yesterday: 80 °F

Past Weeks' High & Low Weather Summary

 TemperatureHumidityPressure
High90 °F (Sep 1, 2:58 PM)100% (Aug 18, 1:58 AM)30.23 "Hg (Aug 18, 1:58 AM)
Low58 °F (Aug 28, 5:58 AM)43% (Aug 22, 2:58 PM)29.83 "Hg (Aug 24, 5:58 PM)
Average75 °F78%30.02 "Hg
* Reported Aug 18 1:58 AM — Sep 2 1:58 AM, Dover, Weather by CustomWeather, © 2015

Note: Actual official high and low records may vary slightly from our data, if they occured in-between our weather recording intervals... More about our weather records

Advertising

Dover weather history for previous 24 hours

 ConditionsComfort  
Time TempWeatherWind HumidityBarometerVisibility
1:58 AM
Wed, Sep 2
74 °FClear.5 mph100%30.03 "Hg10 mi
12:58 AM74 °FClear.3 mph100%30.03 "Hg10 mi
11:58 PM
Tue, Sep 1
76 °FClear.2 mph94%30.04 "Hg10 mi
10:58 PM76 °FClear.2 mph91%30.04 "Hg10 mi
9:58 PM78 °FClear.7 mph86%30.03 "Hg10 mi
8:58 PM79 °FClear.2 mph82%30.03 "Hg10 mi
7:58 PM80 °FSunny.5 mph87%30.01 "Hg10 mi
6:58 PM81 °FSunny.3 mph82%30.00 "Hg10 mi
4:58 PM86 °FSunny.8 mph66%30.00 "Hg10 mi
3:58 PM89 °FSunny.8 mph58%30.00 "Hg10 mi
2:58 PM90 °FSunny.8 mph56%30.01 "Hg10 mi
2:01 PM90 °FLight rain. Passing clouds.6 mph55%30.02 "Hg10 mi
1:58 PM89 °FSunny.6 mph57%30.03 "Hg10 mi
12:58 PM88 °FSunny.1 mph64%30.05 "Hg10 mi
11:58 AM86 °FSunny.1 mph65%30.06 "Hg7 mi
10:58 AM83 °FSunny.5 mph71%30.07 "Hg10 mi
9:58 AM81 °FSunny.6 mph74%30.06 "Hg10 mi
8:58 AM77 °FSunny.6 mph90%30.05 "Hg10 mi
7:58 AM73 °FSunny.5 mph100%30.05 "Hg10 mi
6:58 AM71 °FClear.5 mph100%30.03 "Hg10 mi
5:58 AM71 °FClear.3 mph100%30.02 "Hg10 mi
4:58 AM72 °FClear.6 mph100%30.02 "Hg10 mi
3:58 AM72 °FClear.7 mph100%30.03 "Hg10 mi
Weather by CustomWeather, © 2015

See weather overviewHow to use our weather pages